Regional Weather Roundup
Issued by NWS

Home | Current Version | Previous Version | Graphics & Text | Print | Product List | Glossary On
Versions: 1 2 3 4 5 6 7 8 9 10 11 12 13 14 15 16 17 18 19 20 21 22 23 24 25 26 27 28 29 30 31 32 33 34 35 36 37 38 39 40 41 42 43 44 45 46 47 48 49 50
000
ASUS43 KOAX 290910
RWRNE

WEATHER ROUNDUP FOR NEBRASKA
NATIONAL WEATHER SERVICE OMAHA NE
400 AM CDT WED MAR 29 2017

NOTES: SATELLITE DATA IS BEING USED TO AUGMENT CLOUD COVER ABOVE
       12000 FEET.
       "FAIR" INDICATES FEW OR NO CLOUDS BELOW 12,000 FEET WITH NO
       SIGNIFICANT WEATHER AND/OR OBSTRUCTIONS TO VISIBILITY.

  * THESE STATIONS DO NOT REPORT WEATHER SUCH AS RAIN...SNOW OR FOG.

NEZ001>004-019>022-054>056-291000-
NEBRASKA PANHANDLE

CITY           SKY/WX    TMP DP  RH WIND       PRES   REMARKS
SCOTTSBLUFF    CLOUDY    40  37  89 CALM      30.12S FOG
ALLIANCE       CLOUDY    38  37  97 CALM      30.09F
CHADRON        CLOUDY    40  38  93 SW3       30.11F
KIMBALL        DRIZZLE   37  37 100 NE6       30.10R WCI  32
SIDNEY         LGT RAIN  36  35  96 N9        30.10R WCI  29
$$

NEZ057>060-069>072-079>082-291000-
SOUTHWEST NEBRASKA

CITY           SKY/WX    TMP DP  RH WIND       PRES   REMARKS
NORTH PLATTE   CLOUDY    44  41  89 NE13      30.03F
IMPERIAL       CLOUDY    41  39  93 N10       30.05R
LEXINGTON      RAIN      43  41  93 NE10      30.02F
MCCOOK         LGT RAIN  43  42  97 NE12      30.01S FOG
OGALLALA       CLOUDY    43  40  92 NE9       30.07S
$$

NEZ005>010-023>029-035>040-094-291000-
NORTH CENTRAL NEBRASKA

CITY           SKY/WX    TMP DP  RH WIND       PRES   REMARKS
VALENTINE      CLOUDY    42  39  89 N3        30.12F
AINSWORTH      DRIZZLE   42  42 100 N7        30.10F
BROKEN BOW     LGT RAIN  44  41  89 N10G18    30.03F
O`NEILL        DRIZZLE   45  44  96 NW6       30.11S
ORD            CLOUDY    44  41  89 N7        30.05F
THEDFORD       CLOUDY    42  41  97 NE3       30.08F
$$

NEZ041-046>049-061>064-073>077-083>087-291000-
SOUTH CENTRAL NEBRASKA

CITY           SKY/WX    TMP DP  RH WIND       PRES   REMARKS
GRAND ISLAND   CLOUDY    43  43 100 NE14      30.02F FOG
AURORA         CLOUDY    43  43 100 NE15      30.01F FOG
HASTINGS       LGT RAIN  43  42  97 NE15      29.99F FOG
HEBRON         LGT RAIN  45  44  98 NE15      29.97S
HOLDREGE       DRIZZLE   42  41  96 NE14      29.99F
KEARNEY *      CLOUDY    43  39  87 NE15      30.00F
YORK           CLOUDY    45  45 100 NE14      30.02F FOG
$$

NEZ011>018-030>034-042>045-291000-
NORTHEAST NEBRASKA

CITY           SKY/WX    TMP DP  RH WIND       PRES   REMARKS
NORFOLK        CLOUDY    44  41  89 E8        30.07F
ALBION         DRIZZLE   46  42  88 NE8       30.07F
BLAIR          RAIN      46  44  92 NE6       30.06S
FREMONT        CLOUDY    45  45  98 NE7       30.06F
TEKAMAH        LGT RAIN  45  43  93 N6        30.08F
WAYNE          CLOUDY    45  44  99 E7        30.09F
$$

NEZ050>053-065>068-078-088>093-291000-
SOUTHEAST NEBRASKA

CITY           SKY/WX    TMP DP  RH WIND       PRES   REMARKS
LINCOLN        LGT RAIN  46  45  96 NE14      30.04F FOG
OMAHA EPPLEY   RAIN      47  42  83 E9        30.07R
BEATRICE       RAIN      47  47  99 NE14      29.98F
FALLS CITY     RAIN      48  46  93 NE12      29.98F FOG
NEBRASKA CITY  RAIN      46  46  98 NE13      30.01F
PLATTSMOUTH    RAIN      46  43  90 NE10      30.04F
$$

NEZ044-045-051>053-067-291000-
OMAHA AREA

CITY           SKY/WX    TMP DP  RH WIND       PRES   REMARKS
OMAHA EPPLEY   RAIN      47  42  83 E9        30.07R
BLAIR          RAIN      46  44  92 NE6       30.06S
FREMONT        CLOUDY    45  45  98 NE7       30.06F
MILLARD        RAIN      48  46  91 NE3       30.06S
OFFUTT AFB     HVY RAIN  46  44  94 NE8       30.05S FOG
PLATTSMOUTH    RAIN      46  43  90 NE10      30.04F
WAHOO          DRIZZLE   45  43  94 NE8       30.05S
$$



USA.gov is the U.S. government's official web portal to all federal, state and local government web resources and services.